Vorticity
3 5 4 7 3 8 5 6 3 8 9 7 5 3 3 2 3 5 4 5 5 6
6 6 3 4 3 5 4 4 5 9 3 6 6 7 8 9 8 7 7 7 7 8
4 3 2 2 6 4 7 9 0 4 1 5 4 4 5 7 9 8 8 8 7 7
5 3 8 6 5 -1 8 6 6 7 5 2 3 6 8 8 6 6 5 5 5 5
5 5 2 1 5 4 -2 7 8 5 7 2 4 2 1 7 1 6 5 8 1 3
10 8 7 6 5 1 6 1 5 12 14 2 7 9 4 6 6 2 2 1 -2 3
10 7 10 9 6 3 1 3 9 -4 10 6 2 10 15 2 7 7 -1 17 -12 7
8 8 11 8 7 7 4 7 6 3 -4 -0 8 -9 28 -3 14 26 31 7 48 4
19 9 2 9 7 6 6 6 4 2 6 -3 -1 2 -4 -7 -11 -3 12 -29 -9 -17
7 20 9 6 11 8 7 9 5 8 7 6 8 1 -3 3 6 5 9 7 3 26
10 -9 20 8 5 14 16 8 3 6 8 8 5 7 6 7 8 7 7 1 11 4
18 8 5 4 16 8 5 4 21 8 5 8 1 5 5 3 2 6 2 7 6 10
4 9 10 13 12 14 7 5 5 6 7 3 2 9 7 6 4 9 11 13 13 48
1 6 8 8 10 11 15 9 8 20 1 56 4 3 1 -1 8 9 7 5 2 -16
Height
5727 5734 5739 5745 5750 5756 5763 5769 5773 5778 5783 5787 5790 5793 5796 5800 5804 5807 5809 5812 5815 5818
5715 5721 5728 5735 5741 5747 5752 5758 5763 5768 5773 5776 5779 5783 5787 5791 5795 5798 5800 5802 5806 5809
5705 5710 5717 5723 5728 5735 5741 5745 5752 5758 5762 5766 5769 5773 5777 5781 5785 5788 5790 5793 5796 5800
5691 5698 5704 5712 5716 5721 5728 5735 5738 5745 5751 5755 5759 5762 5766 5771 5775 5778 5781 5783 5786 5789
5677 5685 5691 5698 5704 5709 5715 5722 5728 5732 5737 5742 5747 5752 5756 5760 5764 5767 5771 5773 5775 5778
5663 5670 5677 5685 5691 5696 5701 5708 5715 5721 5725 5730 5735 5739 5744 5749 5752 5756 5759 5762 5764 5767
5648 5655 5663 5670 5677 5683 5688 5694 5700 5708 5714 5718 5723 5727 5732 5737 5740 5743 5744 5749 5752 5752
5633 5641 5648 5656 5663 5669 5675 5681 5686 5691 5697 5702 5708 5712 5718 5720 5724 5729 5729 5734 5737 5741
5619 5626 5634 5641 5648 5654 5661 5667 5673 5677 5682 5686 5691 5697 5702 5706 5710 5710 5713 5719 5722 5726
5603 5610 5618 5625 5631 5638 5645 5652 5658 5664 5668 5674 5679 5682 5685 5688 5692 5696 5700 5703 5707 5710
5587 5595 5601 5608 5616 5622 5629 5636 5642 5648 5654 5659 5664 5668 5671 5676 5678 5682 5685 5691 5695 5695
5568 5577 5586 5593 5599 5606 5613 5620 5626 5632 5637 5643 5647 5653 5658 5662 5665 5669 5673 5675 5678 5681
5549 5557 5566 5575 5582 5590 5596 5603 5608 5614 5620 5624 5629 5635 5641 5646 5649 5653 5657 5661 5664 5665
5530 5537 5546 5555 5563 5571 5579 5586 5592 5599 5604 5608 5612 5618 5623 5627 5632 5636 5640 5645 5649 5653